Ju Bpl Pass 54812 Schedule, Route, Map - Jodhpur to Bhopal train
Must See India - Best Travel Guide to India
Home   |   Login   |   Register   |   Contact Us
 

Ju Bpl Pass (54812)

Print
     

Service Days:

All Days

Classes:

First Class (FC), Sleeper (SL)

Duration:

26h 45m

Station Arrival Departure Stop Time Distance Day
1 Jodhpur (JU) starts 08:05 am Starts 0 km 1
2 Raika Bagh (RKB) 08:10 am 08:12 am 2 min 3 km 1
3 Banar (BNO) 08:23 am 08:25 am 2 min 15 km 1
4 Jajiwal (JWL) 08:33 am 08:35 am 2 min 23 km 1
5 Asranada (AAS) 08:42 am 08:44 am 2 min 32 km 1
6 Kheri Salwa (KSW) 08:52 am 08:54 am 2 min 41 km 1
7 Pipar (PPR) 09:00 am 09:02 am 2 min 48 km 1
8 Sathin Road (SWF) 09:12 am 09:14 am 2 min 56 km 1
9 Umed (UMED) 09:24 am 09:26 am 2 min 67 km 1
10 Kharia Khangarh (KXG) 09:36 am 09:38 am 2 min 78 km 1
11 Gotan (GOTN) 09:56 am 09:58 am 2 min 84 km 1
12 Jogi Magra (JOM) 10:08 am 10:10 am 2 min 94 km 1
13 Merta (MTD) 10:28 am 10:37 am 9 min 105 km 1
14 Kheduli (KQW) 10:45 am 10:47 am 2 min 115 km 1
15 Ren (REN) 10:55 am 10:57 am 2 min 122 km 1
16 Jalsu (JAC) 11:10 am 11:12 am 2 min 137 km 1
17 Jalsu Nanak (JACN) 11:19 am 11:21 am 2 min 142 km 1
18 Degana Jn (DNA) 11:43 am 11:45 am 2 min 149 km 1
19 Gachhipura (GCH) 11:56 am 11:58 am 2 min 164 km 1
20 Besroli (BSRL) 12:08 pm 12:10 pm 2 min 176 km 1
21 Borawar (BOW) 12:19 pm 12:21 pm 2 min 187 km 1
22 Makrana (MKN) 12:26 pm 12:28 pm 2 min 193 km 1
23 Kuchaman (KMNC) 12:41 pm 12:43 pm 2 min 207 km 1
24 Thathana Mithri (THMR) 12:50 pm 12:52 pm 2 min 212 km 1
25 Naya Kharadia (NYK) 12:57 pm 12:59 pm 2 min 216 km 1
26 Nawa City (NAC) 01:51 pm 01:53 pm 2 min 223 km 1
27 Govindi Marwar (GVMR) 02:04 pm 02:06 pm 2 min 232 km 1
28 Gudha (GA) 02:16 pm 02:18 pm 2 min 243 km 1
29 Sambhar Lake (SBR) 02:27 pm 02:29 pm 2 min 251 km 1
30 Phulera Jn (FL) 03:20 pm 03:35 pm 15 min 258 km 1
31 Hirnoda (HDA) 03:41 pm 03:43 pm 2 min 267 km 1
32 Dhinda (DHND) 03:48 pm 03:50 pm 2 min 271 km 1
33 Asalpur Jobner (JOB) 03:56 pm 03:58 pm 2 min 276 km 1
34 Bobas (BOBS) 04:05 pm 04:07 pm 2 min 284 km 1
35 Sheo Singh Pura (SHNX) 04:14 pm 04:16 pm 2 min 291 km 1
36 Dhanakya (DNK) 04:21 pm 04:23 pm 2 min 294 km 1
38 Jaipur (JP) 04:50 pm 05:35 pm 45 min 313 km 1
39 Durgapura (DPA) 05:43 pm 05:45 pm 2 min 320 km 1
40 Sanganer (SNGN) 05:53 pm 05:55 pm 2 min 325 km 1
41 Shdspra Padmpra (SAS) 06:09 pm 06:11 pm 2 min 342 km 1
42 Chaksu (CKS) 06:21 pm 06:23 pm 2 min 355 km 1
43 Channani (CHNN) 06:32 pm 06:34 pm 2 min 366 km 1
44 Bansthali Niwai (BNLW) 06:44 pm 06:46 pm 2 min 379 km 1
45 Siras (SRAS) 06:59 pm 07:01 pm 2 min 394 km 1
46 Isarda (ISA) 07:10 pm 07:12 pm 2 min 405 km 1
47 Sureli (SURL) 07:21 pm 07:23 pm 2 min 413 km 1
48 Chauth Ka Brwra (CKB) 07:44 pm 07:46 pm 2 min 422 km 1
49 Devpura (DPZ) 08:00 pm 08:02 pm 2 min 433 km 1
50 Sawai Madhopur (SWM) 08:25 pm 08:40 pm 15 min 444 km 1
51 Indargarh (IDG) 09:18 pm 09:20 pm 2 min 481 km 1
52 Lakheri (LKE) 09:28 pm 09:30 pm 2 min 491 km 1
53 Kapren (KPZ) 09:53 pm 09:55 pm 2 min 519 km 1
54 Keshorai Patan (KPTN) 10:12 pm 10:14 pm 2 min 539 km 1
55 Kota (KOTA) 10:45 pm 11:05 pm 20 min 552 km 1
56 Antah (ATH) 11:38 pm 11:40 pm 2 min 597 km 1
57 Baran (BAZ) 12:15 am 12:20 am 5 min 618 km 2
58 Atru (ATRU) 01:01 am 01:03 am 2 min 648 km 2
59 Salpura (SYL) 01:16 am 01:18 am 2 min 662 km 2
60 Chhabra Gugor (CAG) 01:31 am 01:33 am 2 min 677 km 2
61 Ruthiyai (RTA) 02:55 am 03:00 am 5 min 716 km 2
62 Mahugarha (MUGA) 03:10 am 03:12 am 2 min 729 km 2
63 Guna (GUNA) 03:25 am 03:35 am 10 min 737 km 2
64 Pagara (PGA) 03:53 am 03:55 am 2 min 750 km 2
65 Shadhoragaon (SHDR) 04:13 am 04:15 am 2 min 766 km 2
66 Ashok Nagar (ASKN) 04:38 am 04:40 am 2 min 781 km 2
67 Orr (ORR) 04:56 am 04:58 am 2 min 793 km 2
68 Pipraigaon (PIA) 05:10 am 05:12 am 2 min 807 km 2
69 Guneru Bamori (GVB) 05:21 am 05:23 am 2 min 818 km 2
70 Mungaoli (MNV) 05:33 am 05:35 am 2 min 827 km 2
71 Semarkheri (SRKI) 05:58 am 06:00 am 2 min 842 km 2
72 Bina Jn (BINA) 06:50 am 07:00 am 10 min 855 km 2
73 Mandi Bamora (MABA) 07:19 am 07:21 am 2 min 872 km 2
74 Kalhar (KAH) 07:29 am 07:31 am 2 min 881 km 2
75 Bareth (BET) 07:43 am 07:45 am 2 min 891 km 2
76 Ganj Basoda (BAQ) 07:58 am 08:00 am 2 min 901 km 2
77 Pabai (PAI) 08:06 am 08:08 am 2 min 909 km 2
78 Gulabhganj (GLG) 08:18 am 08:20 am 2 min 919 km 2
79 Sumer (SUMR) 08:26 am 08:28 am 2 min 926 km 2
80 Vidisha (BHS) 09:09 am 09:11 am 2 min 940 km 2
81 Sanchi (SCI) 09:23 am 09:25 am 2 min 949 km 2
82 Salamatpur (SMT) 09:33 am 09:35 am 2 min 957 km 2
83 Dewanganj (DWG) 09:43 am 09:45 am 2 min 966 km 2
84 Bhadbhadaghat (BVB) 09:56 am 09:58 am 2 min 975 km 2
85 Sukhisewaniyan (SUW) 10:08 am 10:10 am 2 min 982 km 2
86 Bhopal (BPL) 10:50 am ends Ends 993 km 2

 

 Click to view map

You can drag the map with your mouse, and double-click to zoom.

People who viewed this page also viewed

 
Alchi honeymoon packages from Mumbai
 
Bandipur-National-Park Honeymoon Packages from Kolkata
 
Dadra honeymoon packages from Delhi
 
Honeymoon trip from Bangalore to Dalhousie
 
Kargil honeymoon packages from Hyderabad
 
Meghalaya tour packages from Mumbai
 
Ooty packages from Kolkata
 
Srinagar honeymoon packages from Delhi
 
Srinagar packages from Kolkata
 
Tamil Nadu packages from Chennai
 
Uttaranchal packages from Kolkata
 
hotels in Kochi
 

Destinations

 
 

More

 
debug_temp: train_route : train:2113:Ju Bpl Pass:Train